Location: Soapstone Prairie Natural Area
(40.9437°N, 105.0829°W)
Time: 18:11:38
(UTC-06:00)

ISS - Visible Passes

Search period start: 28 August 2016 00:00
Search period end: 07 September 2016 00:00
Orbit: 402 x 406 km, 51.6° (Epoch: 29 August)

Date Brightness Start Highest point End Pass type
(mag) Time Alt. Az. Time Alt. Az. Time Alt. Az.
03 Sep -1.5 05:57:49 10° SSW 06:00:41 29° SE 06:03:35 10° ENE visible
04 Sep -0.7 05:06:25 10° SSE 05:08:25 15° SE 05:10:25 10° E visible
05 Sep -3.2 05:48:49 10° SW 05:52:04 73° SE 05:55:21 10° ENE visible
06 Sep -2.1 04:58:41 28° S 04:59:39 36° SE 05:02:42 10° ENE visible
